Probability
0 3 32 42 39 35 35 35 35 39 42 29 29 26 23 26 29 29 19 19 19 23 23 19 16 16 19 16 13 13 6 3 6 6 6 16 16 10 3 3 0 0 10
0 10 29 42 32 29 32 29 35 35 26 23 23 23 26 29 29 23 23 23 16 16 16 16 13 16 19 16 13 10 6 6 6 6 6 6 10 13 3 3 0 0 0
3 10 32 42 32 29 29 29 35 29 26 23 23 23 26 23 23 23 19 16 16 16 16 16 13 13 13 13 10 6 3 0 3 0 0 0 0 0 0 3 3 3 3
10 13 26 32 35 35 32 39 29 29 29 26 23 19 19 19 19 19 19 19 16 16 16 16 16 16 10 6 10 3 3 0 0 0 0 0 0 0 0 0 0 3 3
10 13 19 32 35 39 35 29 26 26 26 16 23 19 19 19 19 16 19 13 13 13 13 13 13 10 6 6 10 6 0 0 0 0 0 0 0 0 0 3 3 3 3
10 13 16 29 32 35 32 32 32 29 26 19 23 19 19 19 19 16 19 13 13 13 13 10 10 10 6 3 6 3 0 0 0 0 0 0 0 0 0 3 3 0 0
10 13 19 26 29 29 26 32 32 29 29 23 23 23 16 16 16 16 19 13 13 13 10 10 10 10 6 3 3 3 0 0 0 0 0 0 0 0 0 0 0 0 0
10 10 19 26 26 26 26 26 26 29 29 26 23 19 16 16 13 16 13 13 13 10 10 10 10 10 10 6 3 3 0 0 0 0 0 0 0 0 0 0 0 0 0
10 10 13 19 16 16 16 19 19 19 16 26 23 13 13 16 13 13 10 10 10 10 10 10 10 10 10 6 3 0 0 0 0 0 0 0 0 0 0 0 0 0 0
6 6 10 10 10 10 10 6 3 10 10 3 6 10 10 10 10 6 10 10 6 10 10 10 10 10 6 3 3 0 0 0 0 0 0 0 0 0 0 0 0 0 0
6 6 3 6 6 6 3 3 3 3 3 3 3 3 3 6 3 3 3 3 3 6 6 10 10 10 3 3 0 0 0 0 0 0 0 0 0 0 0 0 0 0 0
6 6 6 3 3 3 3 3 3 3 3 0 0 0 0 3 3 3 3 3 3 3 3 3 3 3 0 0 0 0 0 0 0 0 0 0 0 0 0 0 0 0 0
3 3 3 3 3 3 3 3 3 3 3 0 0 0 0 0 0 3 3 0 0 3 3 3 3 0 0 0 0 0 0 0 0 0 0 0 3 0 0 0 0 0 0
3 3 3 3 3 3 3 3 3 3 3 0 0 0 0 0 0 0 0 0 0 0 0 0 0 0 0 0 0 0 0 0 0 0 0 0 0 3 0 0 0 0 0
3 3 3 3 3 3 3 3 3 3 3 0 0 0 0 0 0 0 0 0 0 0 0 0 0 0 0 0 0 0 0 0 0 0 0 0 0 0 0 0 0 3 0
3 3 3 3 3 3 3 3 0 3 3 0 0 0 0 0 0 0 0 0 0 0 0 0 0 0 0 0 0 0 0 0 0 0 0 0 0 0 0 0 3 3 0
3 3 3 3 3 3 3 3 3 0 0 0 0 0 0 0 0 0 0 0 0 0 0 0 0 0 0 0 0 0 0 0 0 0 0 0 0 0 0 0 3 6 0
0 3 3 3 3 3 3 3 3 0 0 0 0 0 0 0 0 0 0 0 0 0 0 0 0 0 0 0 0 0 0 0 0 0 0 0 0 0 0 0 0 0 0
0 3 3 3 3 3 3 3 0 0 0 0 0 0 0 0 0 0 0 0 0 0 0 0 0 0 0 0 0 0 0 0 0 0 0 0 0 0 0 0 0 0 0
0 3 3 3 3 3 0 0 0 0 0 0 0 0 0 0 0 0 0 0 0 0 0 0 0 0 0 0 0 0 0 0 0 0 0 0 0 0 0 0 0 0 0
0 0 0 0 0 0 0 0 0 0 0 0 0 0 0 0 0 0 0 0 0 0 0 0 0 0 0 0 0 0 0 0 0 0 0 0 0 0 0 0 0 0 0
0 0 0 0 0 0 0 0 0 0 0 0 0 0 0 0 0 0 0 0 0 0 0 0 0 0 0 0 0 0 0 0 0 0 0 0 0 0 0 0 0 0 0
0 0 0 0 0 0 0 0 0 0 0 0 0 0 0 0 0 0 0 0 0 0 0 0 0 0 0 0 0 0 0 0 0 0 0 0 0 0 0 0 0 0 0
0 0 0 0 0 0 0 0 0 0 0 0 0 0 0 0 0 0 0 0 0 0 0 0 0 0 0 0 0 0 0 0 0 0 0 0 0 0 0 0 0 0 0
0 0 0 0 0 0 0 0 0 0 0 0 0 0 0 0 0 0 0 0 0 0 0 0 0 0 0 0 0 0 0 0 0 0 0 0 0 0 0 0 0 0 0
0 0 0 0 0 0 0 0 0 0 0 0 0 0 0 0 0 0 0 0 0 0 0 0 0 0 0 0 0 0 0 0 0 0 0 0 0 0 0 0 0 0 0
Height
5836 5836 5837 5838 5839 5840 5841 5842 5843 5843 5844 5845 5846 5847 5848 5849 5850 5851 5852 5853 5853 5854 5855 5856 5856 5856 5857 5857 5858 5858 5858 5859 5859 5859 5860 5860 5860 5861 5861 5861 5862 5862 5863
5833 5834 5835 5836 5837 5838 5839 5840 5841 5842 5843 5844 5844 5845 5846 5847 5848 5849 5850 5851 5852 5853 5854 5854 5855 5855 5856 5856 5857 5857 5857 5858 5858 5859 5859 5859 5860 5860 5860 5861 5861 5862 5862
5830 5831 5833 5834 5835 5836 5837 5838 5839 5840 5841 5842 5842 5843 5844 5845 5846 5847 5848 5850 5850 5851 5852 5853 5854 5854 5855 5855 5856 5856 5856 5857 5857 5858 5858 5858 5859 5859 5859 5860 5860 5860 5861
5827 5828 5830 5831 5832 5833 5834 5835 5836 5837 5838 5839 5840 5841 5842 5843 5844 5845 5846 5848 5849 5850 5850 5851 5852 5853 5853 5854 5854 5855 5855 5855 5856 5856 5857 5857 5857 5857 5858 5858 5859 5859 5859
5824 5825 5826 5827 5829 5830 5831 5832 5833 5835 5836 5837 5838 5839 5840 5841 5842 5843 5844 5845 5847 5848 5849 5849 5850 5851 5851 5852 5853 5853 5854 5854 5854 5855 5855 5855 5856 5856 5856 5856 5857 5857 5857
5820 5822 5823 5824 5825 5827 5828 5829 5830 5831 5832 5833 5835 5836 5837 5838 5839 5840 5842 5843 5844 5845 5846 5847 5848 5849 5849 5850 5851 5851 5852 5852 5852 5853 5853 5853 5854 5854 5854 5854 5855 5855 5855
5816 5818 5819 5820 5822 5823 5824 5825 5826 5827 5828 5829 5831 5832 5833 5835 5836 5837 5839 5840 5841 5842 5843 5844 5845 5846 5847 5847 5848 5849 5849 5850 5850 5850 5851 5851 5851 5851 5851 5851 5852 5852 5852
5812 5814 5815 5816 5818 5818 5820 5821 5822 5823 5824 5825 5826 5828 5829 5831 5832 5834 5835 5836 5838 5839 5840 5841 5842 5843 5843 5844 5845 5846 5846 5847 5847 5847 5848 5848 5848 5848 5848 5849 5849 5849 5849
5808 5809 5811 5812 5813 5814 5815 5816 5816 5817 5819 5820 5821 5823 5824 5826 5828 5830 5831 5832 5834 5835 5836 5837 5838 5839 5840 5841 5841 5842 5843 5844 5844 5844 5844 5844 5845 5845 5845 5845 5846 5846 5846
5803 5805 5806 5807 5808 5809 5810 5810 5811 5812 5813 5815 5816 5818 5819 5821 5823 5825 5827 5828 5829 5831 5832 5833 5834 5835 5836 5837 5837 5838 5839 5840 5840 5841 5841 5841 5841 5841 5841 5842 5842 5842 5842
5798 5800 5801 5802 5803 5803 5804 5804 5806 5807 5808 5809 5811 5812 5814 5816 5818 5820 5822 5823 5824 5826 5827 5828 5830 5830 5831 5832 5833 5834 5835 5835 5836 5837 5837 5837 5837 5837 5837 5837 5838 5838 5838
5793 5794 5795 5796 5797 5797 5798 5799 5800 5801 5802 5804 5805 5807 5809 5810 5812 5814 5816 5818 5819 5821 5822 5823 5824 5825 5826 5827 5828 5829 5830 5831 5831 5832 5832 5832 5833 5833 5833 5833 5833 5833 5833
5787 5788 5790 5790 5791 5791 5792 5793 5794 5795 5796 5798 5799 5801 5803 5804 5806 5808 5810 5812 5814 5815 5816 5818 5819 5820 5821 5822 5823 5824 5824 5825 5826 5827 5827 5827 5828 5828 5828 5828 5828 5828 5828
5780 5782 5783 5784 5784 5785 5785 5786 5787 5788 5790 5791 5793 5794 5796 5798 5800 5802 5804 5806 5807 5809 5810 5812 5813 5814 5815 5816 5817 5818 5819 5820 5820 5821 5822 5822 5822 5822 5822 5822 5822 5822 5822
5774 5775 5776 5776 5777 5778 5779 5780 5781 5782 5783 5784 5786 5787 5789 5791 5793 5795 5797 5799 5801 5802 5804 5805 5806 5808 5809 5810 5811 5812 5813 5813 5814 5815 5815 5816 5816 5816 5816 5816 5816 5816 5816
5766 5767 5768 5769 5770 5770 5771 5772 5773 5774 5776 5777 5778 5780 5782 5783 5785 5787 5789 5791 5793 5795 5797 5798 5800 5801 5802 5803 5804 5805 5806 5807 5808 5808 5809 5809 5809 5809 5809 5809 5809 5809 5809
5758 5759 5761 5761 5762 5762 5763 5764 5765 5766 5768 5769 5770 5772 5774 5775 5777 5779 5781 5783 5785 5787 5789 5791 5792 5793 5795 5796 5797 5798 5799 5800 5801 5801 5802 5802 5802 5802 5802 5802 5802 5802 5802
5749 5751 5752 5753 5753 5754 5755 5756 5757 5758 5759 5760 5761 5763 5765 5767 5768 5771 5773 5775 5777 5779 5781 5782 5784 5786 5786 5788 5789 5791 5792 5793 5793 5794 5794 5794 5795 5795 5795 5795 5794 5794 5794
5741 5742 5743 5743 5744 5745 5746 5747 5748 5749 5750 5751 5752 5754 5756 5758 5759 5761 5764 5766 5768 5770 5771 5773 5775 5777 5778 5780 5781 5783 5784 5785 5785 5785 5786 5786 5786 5787 5787 5787 5787 5787 5786
5731 5732 5733 5734 5735 5736 5736 5737 5738 5739 5741 5742 5743 5744 5746 5748 5749 5752 5754 5757 5759 5761 5762 5764 5766 5768 5770 5772 5773 5774 5775 5776 5776 5777 5777 5778 5778 5778 5778 5778 5778 5778 5778
5722 5723 5723 5724 5725 5726 5726 5727 5728 5730 5731 5732 5733 5734 5735 5737 5739 5741 5744 5747 5749 5751 5753 5755 5757 5759 5761 5763 5764 5766 5767 5767 5768 5768 5769 5769 5769 5769 5770 5770 5770 5770 5769
5713 5713 5714 5714 5715 5716 5717 5717 5718 5720 5721 5722 5723 5724 5726 5727 5729 5731 5734 5736 5739 5742 5744 5746 5748 5750 5752 5754 5755 5756 5758 5759 5759 5760 5760 5760 5760 5760 5760 5760 5760 5760 5760
5703 5704 5704 5705 5705 5706 5707 5707 5709 5710 5711 5713 5714 5715 5716 5718 5719 5721 5724 5727 5729 5732 5735 5737 5739 5741 5743 5745 5746 5747 5749 5750 5751 5751 5750 5751 5751 5751 5751 5751 5750 5750 5750
5694 5694 5694 5695 5695 5696 5697 5698 5699 5701 5702 5704 5704 5706 5707 5709 5710 5712 5714 5717 5720 5723 5725 5727 5730 5732 5734 5735 5737 5738 5739 5740 5741 5741 5742 5741 5741 5741 5741 5740 5740 5740 5739
5684 5684 5684 5685 5685 5686 5687 5688 5690 5691 5693 5694 5695 5696 5698 5700 5701 5703 5706 5708 5711 5713 5715 5718 5720 5722 5724 5725 5727 5728 5728 5729 5730 5731 5732 5732 5731 5730 5730 5730 5729 5729 5728
5674 5674 5674 5674 5675 5676 5677 5679 5680 5682 5684 5685 5686 5688 5689 5691 5693 5695 5697 5699 5702 5704 5706 5708 5710 5712 5713 5715 5716 5717 5717 5718 5719 5720 5720 5721 5721 5720 5719 5719 5718 5718 5717
Wind_Speed
12 12 12 11 11 10 9 9 8 8 8 7 7 6 6 5 5 5 5 5 5 5 5 5 4 4 3 3 3 3 3 3 3 4 3 3 3 3 3 3 2 3 3
13 13 13 13 12 11 11 10 10 9 9 9 8 8 7 6 7 6 6 6 6 6 6 6 5 5 5 5 5 5 4 4 5 5 5 4 4 4 4 4 4 4 4
14 14 14 13 13 13 12 12 11 11 10 10 10 10 9 8 7 8 7 7 7 7 7 7 7 6 6 6 6 6 6 6 6 6 6 6 5 6 6 6 6 6 6
16 15 15 15 15 14 14 13 13 12 12 11 11 12 11 11 10 9 9 8 8 8 8 8 8 8 8 8 8 7 7 7 7 7 7 7 7 7 7 8 7 8 8
17 17 16 16 16 16 15 15 15 14 14 13 13 13 13 13 13 12 11 11 10 9 9 9 10 9 9 9 9 9 9 9 9 9 9 10 10 9 9 9 9 9 9
19 18 18 18 18 17 17 17 17 16 16 16 15 15 15 15 15 14 14 13 13 12 11 11 11 12 11 11 11 11 11 11 11 11 11 11 12 12 12 11 11 12 11
21 21 20 20 20 20 19 19 19 18 18 18 17 17 17 17 17 17 16 16 15 15 14 13 13 13 14 13 13 13 14 14 13 13 13 13 13 13 13 13 13 13 13
23 23 23 23 22 22 22 21 21 21 21 20 20 20 19 19 19 18 18 18 17 17 16 15 15 15 16 16 15 15 15 15 15 15 15 15 15 15 15 15 15 15 15
24 24 24 24 24 24 23 23 23 23 23 22 22 22 22 22 21 21 20 20 20 19 18 17 17 17 18 18 18 17 17 17 17 16 16 16 16 16 16 17 17 17 17
25 25 25 25 25 25 25 25 24 25 25 24 23 23 24 24 24 23 22 22 22 22 21 20 19 19 19 19 19 19 19 19 19 18 18 18 18 18 18 18 18 19 19
26 27 26 26 26 26 26 26 26 26 26 26 25 25 25 25 25 25 24 24 23 23 23 23 22 21 21 21 21 21 21 20 20 20 20 20 20 20 20 20 20 20 21
27 28 28 28 27 27 28 27 27 27 27 27 26 27 26 26 27 27 26 26 25 25 25 24 24 23 23 23 23 23 23 23 22 22 22 23 22 22 22 22 22 22 23
28 29 29 29 29 29 29 28 28 29 29 29 28 28 28 28 28 28 28 27 27 27 27 27 26 25 24 24 24 24 24 24 24 24 24 24 24 24 24 24 24 25 25
29 29 30 31 31 30 29 30 30 30 30 31 30 30 30 30 30 30 30 30 30 29 29 28 28 27 26 26 26 26 26 26 26 26 26 26 26 27 27 27 27 27 27
31 31 32 32 32 33 32 32 32 33 33 33 32 32 32 32 32 32 32 31 31 31 30 30 29 29 28 28 28 27 27 28 28 28 28 29 29 29 29 29 29 29 29
33 33 33 34 34 34 34 34 34 34 35 35 35 34 34 34 34 34 34 33 33 32 32 31 31 30 30 30 30 30 29 29 29 30 30 30 30 30 30 30 31 31 31
34 34 35 35 36 36 36 36 36 35 36 36 37 37 36 36 36 36 36 35 35 35 34 34 33 33 32 32 32 31 31 31 31 31 32 32 32 32 32 31 32 32 32
35 36 37 37 37 37 37 37 37 37 37 37 37 37 37 37 37 37 38 38 37 37 36 36 35 35 35 34 33 33 33 33 33 33 33 34 34 33 33 33 32 32 33
36 37 37 37 38 38 38 38 38 38 38 38 38 38 38 38 38 38 38 39 38 38 37 37 36 35 35 35 35 34 34 34 34 34 34 34 35 34 34 34 34 33 33
36 37 38 38 39 39 39 39 39 39 39 39 39 39 39 39 39 39 38 39 39 38 38 37 37 36 36 36 36 35 35 35 35 35 35 35 36 35 35 35 35 35 35
37 37 37 37 38 38 39 40 39 39 39 40 40 40 39 39 39 40 39 40 39 38 38 38 38 38 37 37 37 36 36 36 36 36 36 36 37 37 36 37 36 36 36
37 37 37 37 37 38 38 39 39 38 38 39 39 39 39 39 39 40 41 40 39 38 39 39 39 39 38 38 38 38 37 37 38 38 38 38 38 38 38 37 37 38 38
37 37 37 37 37 37 38 38 38 38 37 38 39 39 39 39 39 40 40 40 39 39 39 39 39 39 39 39 39 39 39 38 39 38 39 39 39 39 39 39 39 40 40
37 37 37 36 37 37 38 37 37 37 37 37 37 39 39 39 39 39 40 40 40 40 40 40 39 39 39 40 40 40 41 41 40 38 38 39 40 40 40 41 41 41 41
37 37 37 37 37 37 37 37 37 37 36 36 37 37 38 39 39 39 40 41 41 41 40 40 40 40 41 41 41 41 42 43 42 42 41 41 41 42 42 42 43 43 43
36 37 37 38 38 38 38 38 38 38 37 36 36 36 36 37 38 39 39 40 40 40 40 40 41 41 42 42 42 42 42 43 43 43 43 43 42 42 43 43 44 44 44
Wind_Direction
252 252 249 247 249 250 250 250 250 250 249 250 250 246 241 238 238 239 245 256 261 263 264 266 265 265 270 275 270 262 252 254 254 241 242 246 242 236 226 220 229 237 247
251 250 250 249 249 249 249 249 249 250 251 251 252 251 246 243 239 245 252 259 264 263 261 260 259 263 263 265 265 262 259 262 259 255 246 254 260 252 242 245 249 253 258
250 249 248 248 249 249 250 250 250 250 251 253 252 248 245 243 243 246 253 259 263 263 260 257 257 260 259 260 263 262 261 263 270 260 257 257 261 259 254 254 255 257 262
249 249 249 248 248 248 249 250 251 253 254 253 252 249 248 248 246 247 254 258 260 263 263 259 257 257 257 258 261 261 259 262 266 269 265 260 264 265 262 260 262 264 265
249 249 249 249 248 249 250 251 252 253 255 255 255 253 251 251 252 252 253 257 259 261 263 261 257 256 256 257 260 260 260 262 266 270 271 267 269 270 269 263 264 266 266
252 251 250 250 251 253 253 253 254 255 256 255 257 257 254 253 253 253 253 255 257 258 260 261 259 257 258 259 259 259 261 264 266 268 269 270 271 272 272 271 269 266 265
254 253 252 252 254 255 255 255 254 255 255 256 257 258 255 254 255 255 255 255 256 256 258 259 259 259 259 259 259 261 263 265 267 269 268 269 269 269 271 273 272 270 267
256 255 255 254 255 256 256 258 255 255 256 256 257 257 254 254 255 256 256 256 256 257 258 260 262 263 262 261 260 261 263 264 266 268 269 268 269 268 269 270 269 270 271
258 257 257 257 257 257 258 258 255 255 255 255 255 255 254 254 255 256 256 256 255 256 257 259 262 262 261 260 260 260 262 263 265 267 269 271 271 270 269 270 270 269 270
257 257 257 259 259 258 259 257 255 256 255 255 254 254 254 253 254 256 256 256 256 257 258 260 260 260 261 261 261 261 262 263 265 266 268 271 272 272 270 270 271 270 270
257 257 258 259 259 259 259 258 257 256 255 255 254 254 254 253 253 255 256 256 256 257 258 259 259 259 260 261 261 261 263 264 265 266 268 270 272 273 272 272 272 271 271
256 257 258 259 259 259 258 258 257 256 255 253 253 254 254 253 253 254 255 255 256 258 258 258 258 258 259 261 262 262 263 264 265 266 268 270 272 273 273 272 273 273 272
258 257 258 259 260 260 259 258 258 257 255 253 253 253 254 254 253 253 255 255 256 258 259 259 258 258 259 261 263 263 264 264 265 267 268 270 271 273 273 274 274 274 273
258 259 259 260 259 259 259 259 258 257 256 255 253 253 253 253 253 253 254 255 257 257 259 259 259 260 261 262 262 263 264 265 266 267 268 269 271 273 274 274 274 275 275
259 260 261 260 260 258 259 260 259 258 257 256 255 255 254 253 253 253 254 256 256 257 258 259 259 260 261 262 263 264 265 266 267 268 269 270 271 273 274 275 274 274 275
260 261 262 262 261 260 259 260 260 258 256 255 255 255 255 254 253 253 252 254 255 256 257 257 258 259 261 262 263 265 266 267 268 268 269 270 272 273 274 274 275 275 275
261 262 263 263 262 261 261 261 260 259 258 256 255 255 255 254 253 253 253 253 255 256 256 256 257 258 260 261 263 265 266 268 268 269 270 270 271 272 274 275 275 275 274
261 262 263 263 263 262 261 261 260 259 258 256 255 254 255 255 254 253 253 254 255 256 256 255 256 257 259 260 262 264 266 268 269 269 269 270 271 271 272 274 275 275 275
262 263 263 263 263 262 261 261 260 259 259 257 255 254 254 255 255 253 253 254 255 255 254 255 255 256 259 260 261 264 266 267 268 268 269 269 270 270 271 273 274 274 275
263 264 264 263 262 261 261 261 260 259 259 258 255 255 254 254 254 252 252 253 253 254 254 254 255 256 258 260 261 263 265 266 268 269 270 270 270 271 272 273 274 274 275
264 265 265 264 263 262 261 260 259 258 257 258 257 254 254 253 253 251 250 251 251 252 253 253 254 256 257 259 261 262 264 265 268 269 270 270 270 271 272 273 273 274 275
264 264 264 264 263 262 261 259 259 258 256 256 256 256 254 253 253 252 250 250 251 251 251 253 254 255 255 257 259 261 262 264 267 269 270 271 272 272 273 274 274 275 276
265 265 265 264 263 262 261 259 258 257 256 256 256 255 254 253 252 251 250 250 251 251 251 252 254 255 256 257 259 261 262 264 266 268 270 272 272 273 273 273 274 275 276
265 266 265 265 263 261 260 259 258 258 256 256 256 254 253 252 252 251 250 250 250 252 252 253 254 255 257 258 259 261 264 266 267 267 268 270 271 272 274 274 275 275 276
266 265 265 264 263 261 259 258 257 257 256 256 256 254 253 252 251 251 250 251 252 253 253 254 254 256 257 259 260 262 264 266 267 268 268 270 271 272 273 274 274 275 276
266 265 264 264 263 261 260 259 257 256 255 256 256 254 253 251 250 250 250 251 252 253 254 255 256 257 258 260 261 262 264 265 267 268 270 272 272 273 273 274 275 275 275